User: anonymous   Login
Location: Unspecified
(0.0000°N, 0.0000°E)
Time: 06:07:01
(UTC+00:00)
Language:

Elektron 1 - Orbit

View from above orbital plane
View from above orbital plane
View from above satellite
View from above satellite

Ground track
Ground track

The orbit data is extracted from the following two-line orbital elements,

1   746U 64006A   19022.87011298 +.00000192 +00000-0 +69862-4 0  9990
2   746 060.8513 221.1790 3027929 256.3519 068.6596 09.03547030822459
Epoch (UTC): 22 January 2019 20:52:57
Eccentricity: 0.3027929
inclination: 60.8513°
perigee height: 411 km
apogee height: 6307 km
right ascension of ascending node: 221.1790°
argument of perigee: 256.3519°
revolutions per day: 9.03547030
mean anomaly at epoch: 68.6596°
orbit number at epoch: 82245

The dashed part of the orbit path shows where the satellite is in the earth's shadow,  

DLR